7L2IWN-13 Weather Reports


time (UTC)temp
F
wind
direction
speed
knots
gust
knots
rain 1hr
in
rain 24hr
in
rain mn
in
humidity
%
barometer
mb
20260901051203 75 206 1.7 2.6 0.00 0.02 0.02 96 1015.9
20260901050002 76 91 0.0 0.0 0.00 0.02 0.02 93 1016.1
20260901044803 76 90 0.9 0.9 0.00 0.02 0.02 93 1015.9
20260901043603 77 91 0.0 0.9 0.00 0.02 0.02 91 1016.0
20260901042403 77 90 0.9 1.7 0.00 0.02 0.02 91 1015.8
20260901041203 76 92 0.0 0.9 0.00 0.02 0.02 92 1015.6
20260901040003 78 120 0.9 1.7 0.00 0.02 0.02 90 1016.0
20260901034802 77 121 0.9 1.7 0.00 0.02 0.02 90 1016.0
20260901033603 78 132 0.0 0.9 0.00 0.02 0.02 90 1015.9
20260901032403 76 208 0.0 0.0 0.00 0.02 0.02 91 1016.2
20260901031204 75 244 0.0 0.9 0.00 0.02 0.02 92 1016.3
20260901030002 75 160 0.9 1.7 0.00 0.02 0.02 94 1016.3
20260901024803 75 201 1.7 2.6 0.00 0.02 0.02 94 1016.5
20260901023602 74 215 1.7 2.6 0.00 0.02 0.02 95 1016.2
20260901022402 74 200 0.9 2.6 0.00 0.02 0.02 94 1016.5
20260901021202 74 138 0.9 1.7 0.00 0.02 0.02 94 1016.6
20260901020003 74 147 0.9 1.7 0.00 0.02 0.02 95 1016.4
20260901014803 74 110 0.9 1.7 0.00 0.02 0.02 94 1016.7
20260901013602 76 320 0.0 0.9 0.00 0.02 0.02 91 1016.8
20260901012402 76 322 0.0 0.0 0.00 0.02 0.02 92 1017.1
20260901011202 75 292 0.0 0.0 0.00 0.02 0.02 93 1016.9
20260901010003 75 258 0.0 1.7 0.00 0.02 0.02 94 1016.9
20260901004802 74 13 0.0 1.7 0.00 0.02 0.02 95 1017.0
20260901003602 75 276 0.9 1.7 0.00 0.02 0.02 94 1017.0
20260901002403 75 342 0.0 0.9 0.00 0.02 0.02 94 1017.0
20260901001203 74 340 0.0 0.0 0.00 0.02 0.02 95 1017.0
20260901000003 73 336 0.0 0.0 0.00 0.02 0.02 98 1017.0
20260831234805 72 336 0.0 0.0 0.00 0.02 0.02 99 1016.9
20260831233603 71 341 0.9 1.7 0.00 0.02 0.02 99 1016.8
20260831232404 71 351 0.9 2.6 0.00 0.02 0.02 99 1016.9
20260831231204 71 311 0.9 2.6 0.00 0.02 0.02 99 1017.1
20260831230004 71 310 0.0 0.9 0.00 0.02 0.02 99 1017.0
20260831224804 70 310 0.0 0.0 0.00 0.02 0.02 99 1016.9
20260831223603 70 310 0.0 0.9 0.00 0.02 0.02 99 1016.7
20260831222403 69 310 0.0 0.0 0.00 0.02 0.02 99 1017.1
20260831221203 69 310 0.9 0.9 0.00 0.02 0.02 99 1017.1
20260831220003 69 310 0.0 0.9 0.01 0.02 0.02 99 1017.2
20260831214802 69 310 0.0 0.0 0.01 0.02 0.02 99 1016.8
20260831213604 69 310 0.0 0.0 0.01 0.02 0.02 99 1017.0
20260831212403 69 310 0.0 0.0 0.01 0.02 0.02 99 1017.1
20260831211203 69 310 0.0 0.0 0.02 0.02 0.02 99 1016.9
20260831210004 69 310 0.0 0.0 0.01 0.01 0.01 99 1016.9
20260831204803 69 310 0.0 0.0 0.01 0.01 0.01 99 1016.6
20260831203603 69 310 0.9 2.6 0.01 0.01 0.01 99 1016.5
20260831202402 69 297 1.7 1.7 0.01 0.01 0.01 99 1016.5
20260831201202 69 288 0.9 1.7 0.00 0.00 0.00 99 1016.2
20260831200002 69 270 0.0 0.0 0.00 0.00 0.00 99 1016.5
20260831194802 69 270 0.0 0.0 0.00 0.00 0.00 99 1016.5
20260831193603 69 270 0.0 0.0 0.00 0.00 0.00 99 1016.8
20260831192402 69 258 0.0 0.0 0.00 0.00 0.00 99 1016.4
20260831191202 70 258 0.9 0.9 0.00 0.00 0.00 99 1016.5
20260831190004 70 259 0.0 0.0 0.00 0.00 0.00 99 1016.5
20260831184802 70 259 0.0 0.0 0.00 0.00 0.00 99 1016.5
20260831183601 70 259 0.0 0.0 0.00 0.00 0.00 99 1016.8
20260831182403 70 259 0.0 0.0 0.00 0.00 0.00 99 1016.4
20260831181202 70 260 0.0 0.9 0.00 0.00 0.00 99 1016.8
20260831180002 70 257 0.0 0.9 0.00 0.00 0.00 99 1016.7
20260831174803 70 272 0.0 0.0 0.00 0.00 0.00 99 1016.6
20260831173603 70 252 0.0 0.9 0.00 0.00 0.00 99 1016.7
20260831172402 70 253 0.9 1.7 0.00 0.00 0.00 99 1016.5
20260831171202 70 279 0.9 1.7 0.00 0.00 0.00 99 1016.6
20260831170002 71 279 0.9 0.9 0.00 0.00 0.00 99 1016.2
20260831164803 71 278 0.0 0.0 0.00 0.00 0.00 99 1016.3
20260831163603 71 279 0.0 0.0 0.00 0.00 0.00 99 1016.6
20260831162402 71 279 0.0 0.0 0.00 0.00 0.00 99 1016.6
20260831161202 70 274 1.7 1.7 0.00 0.00 0.00 99 1016.6
20260831160003 70 252 1.7 2.6 0.00 0.00 0.00 99 1016.5
20260831154803 71 281 0.0 0.9 0.00 0.00 0.00 99 1016.4
20260831153604 70 282 0.0 0.9 0.00 0.00 0.00 99 1016.4
20260831152402 70 282 1.7 1.7 0.00 0.00 0.00 99 1016.5
20260831151204 70 278 1.7 2.6 0.00 0.00 0.00 99 1016.5
20260831150004 71 228 1.7 4.3 0.00 0.00 0.00 99 1016.7
20260831144803 71 262 1.7 1.7 0.00 0.00 0.00 99 1016.6
20260831143603 71 231 1.7 2.6 0.00 0.00 0.00 99 1016.6
20260831142403 71 233 0.9 1.7 0.00 0.00 0.00 99 1016.4
20260831141202 71 232 1.7 1.7 0.00 0.00 0.00 99 1016.4
20260831140002 71 232 1.7 2.6 0.00 0.00 0.00 99 1016.4
20260831134802 71 231 1.7 2.6 0.00 0.00 0.00 99 1016.0
20260831133601 71 242 1.7 2.6 0.00 0.00 0.00 99 1016.2
20260831132403 72 231 1.7 2.6 0.00 0.00 0.00 99 1016.1
20260831131202 72 221 1.7 1.7 0.00 0.00 0.00 99 1016.0
20260831130002 72 229 0.9 2.6 0.00 0.00 0.00 99 1016.6
20260831124801 72 233 1.7 2.6 0.00 0.00 0.00 99 1016.3
20260831123603 72 227 2.6 4.3 0.00 0.00 0.00 99 1016.1
20260831122402 72 235 0.9 1.7 0.00 0.00 0.00 99 1016.1
20260831121202 72 220 2.6 4.3 0.00 0.00 0.00 99 1016.1
20260831120001 73 238 1.7 2.6 0.00 0.00 0.00 99 1016.2
20260831114803 73 245 2.6 4.3 0.00 0.00 0.00 99 1016.1
20260831113601 73 290 0.9 1.7 0.00 0.00 0.00 98 1016.1
20260831112401 73 312 1.7 1.7 0.00 0.00 0.00 98 1016.0
20260831111202 73 312 0.0 0.0 0.00 0.00 0.00 98 1016.1
20260831110004 73 293 0.0 0.9 0.00 0.00 0.00 99 1016.1
20260831104804 73 293 1.7 2.6 0.00 0.00 0.00 99 1015.8
20260831103602 74 258 0.0 0.0 0.00 0.00 0.00 99 1015.5
20260831102402 74 248 1.7 1.7 0.00 0.00 0.00 99 1015.5
20260831101203 74 299 0.0 0.0 0.00 0.00 0.00 99 1015.3
20260831100003 74 299 1.7 1.7 0.00 0.00 0.00 99 1015.0
20260831094802 74 275 0.9 1.7 0.00 0.00 0.00 99 1014.8
20260831093602 74 249 0.9 0.9 0.00 0.00 0.00 99 1014.7
20260831092402 74 268 1.7 2.6 0.00 0.00 0.00 99 1014.7
20260831091202 74 247 1.7 2.6 0.00 0.00 0.00 99 1014.7
20260831090001 75 216 1.7 1.7 0.00 0.00 0.00 99 1014.3
20260831084802 75 233 0.9 1.7 0.00 0.00 0.00 98 1014.2
20260831083603 75 259 2.6 2.6 0.00 0.00 0.00 97 1014.1
20260831082402 75 223 1.7 4.3 0.00 0.00 0.00 97 1013.9
20260831081202 75 213 2.6 4.3 0.00 0.00 0.00 97 1014.2
20260831080003 75 206 2.6 4.3 0.00 0.00 0.00 98 1013.7
20260831074803 76 288 1.7 2.6 0.00 0.00 0.00 97 1013.4
20260831073602 76 282 4.3 4.3 0.00 0.00 0.00 96 1013.8
20260831072403 76 295 4.3 5.2 0.00 0.00 0.00 96 1013.4
20260831071203 76 245 2.6 4.3 0.00 0.00 0.00 95 1013.6
20260831070002 76 251 1.7 2.6 0.00 0.00 0.00 95 1013.5
20260831064804 76 238 2.6 4.3 0.00 0.00 0.00 95 1013.7
20260831063603 76 205 1.7 4.3 0.00 0.00 0.00 94 1013.5
20260831062403 76 241 1.7 2.6 0.00 0.00 0.00 94 1013.3
20260831061204 77 207 2.6 4.3 0.00 0.00 0.00 94 1013.5
20260831060002 77 296 2.6 5.2 0.00 0.00 0.00 93 1013.5
20260831054802 77 308 1.7 2.6 0.00 0.00 0.00 93 1013.1
20260831053603 77 339 0.9 1.7 0.00 0.00 0.00 93 1013.3
20260831052403 77 5 0.9 1.7 0.00 0.00 0.00 92 1013.4